Location: Newark
(45.5000°N, 11.4167°E)
Time: 01:10:29
(UTC+00:00)

A-11 Canister half - Pass Details

Date: 21 August 2019
Orbit: 1513 x 1686 km, 47.2° (Epoch: 18 September)

Event Time Altitude Azimuth Distance (km) Brightness Sun altitude
Rises 22:34:39 0° 290° (WNW) 4,792 12.0 -31.7°
Reaches altitude 10° 22:37:43 10° 288° (WNW) 3,829 11.4 -31.8°
Maximum altitude 22:47:27 72° 207° (SSW) 1,720 8.9 -32.1°
Enters shadow 22:48:37 66° 167° (SSE) 1,773 8.9 -32.2°
Drops below altitude 10° 22:57:29 10° 126° (SE) 3,933 - -32.4°
Sets 23:00:41 0° 124° (SE) 4,928 - -32.4°
